sat.trackr.live / text

‹ back to catalog

STARLINK-31370

NORAD 59520 · 2024-073K

PAYLOAD ACTIVE UNKNOWN

§ Identity

Operator
Country
US
Launch date
2024-04-17
Launch site
AFETR
Launch vehicle
Mass (kg)
RCS (m²)

Purposes: comms

External: N2YO · Heavens-Above · Gunter

§ Orbital elements

Epoch: 2026-05-24T23:56:47.154336Z

Period
94.27 min
Inclination
43.0019°
Eccentricity
0.0001461
Mean motion
15.27573322 rev/d
Perigee alt
482.1 km
Apogee alt
484.1 km
Semi-major
6,861.2 km
B*
-1.3546e-5
RAAN
247.2694°
Arg perigee
268.7685°
Mean anomaly
91.3000°
Rev number
11,784

§ Raw data

STARLINK-313701 59520U 24073K   26144.99776799 -.00000635  00000+0 -13546-4 0  99952 59520  43.0019 247.2694 0001461 268.7685  91.3000 15.27573322117849

JSON: /api/v1/satellites/59520 · /tle

For live sub-satellite position, see the globe view (requires WebGL).

§ Visibility from observer

Set your observer location to see the next 7 days of passes ≥ 10°. The values pass through the URL so the page stays shareable.

No JS? Fill the form by hand. The geolocation button needs JavaScript.